Weather in Ononsk

Russia / Zabaykalsky Krai     50°59′04″N   115°34′19″E
temp.,
°C
wind,
m/s
gust,
m/s
humid.,
%
clouds,
%
prec.,
mm/h
press.,
hPa
HPBL,
m
6 march, sat
sat600:00−26sse23920 0.0 104220
03:00−26sse34920 0.0 104060
06:00−24se358959 0.0 1037149
09:00−25se228958 0.0 103553
12:00−18sse358566 0.0 1031360
15:00−15ssw338283 0.0 1027482
18:00−15ssw118880 0.0 102620
21:00−19ssw229140 0.0 102820
7 march, sun
sun700:00−19ssw23930 0.0 102720
03:00−16wsw23890 0.0 102721
06:00−15w22860 0.0 102621
09:00−14s11850 0.0 102820
12:00−8s11810 0.0 1026205
15:00−6sse348612 0.0 1024347
18:00−8sse33923 0.0 102374
21:00−13sse33916 0.0 102523
8 march, mon
mon800:00−14sse33900 0.0 102430
03:00−15sse33932 0.0 102322
06:00−14sse239166 0.0 102130
09:00−12sse229083 0.0 102160
12:00−8ssw2383100 0.0 1019223
15:00−3sw248372 0.0 1017326
18:00−3ssw35908 0.0 1016105
21:00−5wnw5137945 0.1 1020241
9 march, tue
tue900:00−9nw718700 0.0 1023521
03:00−12nw614740 0.0 1027284
06:00−15nw23730 0.0 103023
09:00−16wsw11710 0.0 103220
12:00−10s22664 0.0 1031195
15:00−7sse457114 0.0 1028328
18:00−9sse5108162 0.0 1026338
21:00−12sse4117973 0.0 1026224
10 march, wed
wed1000:00−11sse4984100 0.0 1024208
03:00−11sse1292100 0.0 102221
06:00−12w119493 0.0 102321
09:00−11wnw128969 0.0 102521
12:00−3nw510760 0.0 1024737
15:00−1nw47710 0.0 10231068
18:00−3w11760 0.0 102421
21:00−8ssw12760 0.0 102721